TimeAST,TemperatureF,Dew PointF,Humidity,Sea Level PressureIn,VisibilityMPH,Wind Direction,Wind SpeedMPH,Gust SpeedMPH,PrecipitationIn,Events,Conditions,WindDirDegrees,DateUTC
12:00 AM,80.6,77.0,89,29.92,-9999.0,East,11.5,-,N/A,,Unknown,90,2012-12-23 04:00:00
1:00 AM,80.6,77.0,89,29.89,-9999.0,East,9.2,-,N/A,,Scattered Clouds,90,2012-12-23 05:00:00
2:00 AM,79,75,85,,,East,9.2,,,,Clear,90,2012-12-23 06:00:00
2:00 AM,78.8,75.2,89,29.86,-9999.0,East,9.2,-,N/A,,Unknown,90,2012-12-23 06:00:00
3:00 AM,78.8,75.2,89,29.86,-9999.0,East,11.5,-,N/A,,Unknown,100,2012-12-23 07:00:00
4:00 AM,78.8,75.2,89,29.83,-9999.0,East,8.1,-,N/A,,Unknown,100,2012-12-23 08:00:00
5:00 AM,80,75,81,,,East,11.5,,,,Clear,100,2012-12-23 09:00:00
5:00 AM,80.6,75.2,84,29.83,-9999.0,East,11.5,-,N/A,,Unknown,100,2012-12-23 09:00:00
6:00 AM,78.8,75.2,89,29.86,-9999.0,East,10.4,-,N/A,,Unknown,100,2012-12-23 10:00:00
7:00 AM,78.8,75.2,89,29.89,-9999.0,East,9.2,-,N/A,,Unknown,90,2012-12-23 11:00:00
8:00 AM,82,76,78,29.92,22,East,9.2,,,,Scattered Clouds,90,2012-12-23 12:00:00
8:00 AM,82.4,75.2,79,29.92,6.2,East,9.2,-,N/A,,Partly Cloudy,80,2012-12-23 12:00:00
9:00 AM,82.4,75.2,79,29.92,6.2,East,16.1,-,N/A,,Partly Cloudy,80,2012-12-23 13:00:00
10:00 AM,84.2,77.0,79,29.92,6.2,East,17.3,-,N/A,,Partly Cloudy,90,2012-12-23 14:00:00
11:00 AM,87,80,75,29.93,22,East,15.0,,,,Partly Cloudy,90,2012-12-23 15:00:00
11:00 AM,84.2,75.2,74,29.92,6.2,East,15.0,-,N/A,,Scattered Clouds,90,2012-12-23 15:00:00
12:00 PM,84.2,75.2,74,29.92,6.2,East,18.4,-,N/A,,Scattered Clouds,90,2012-12-23 16:00:00
1:00 PM,84.2,75.2,74,29.89,6.2,East,18.4,-,N/A,,Scattered Clouds,90,2012-12-23 17:00:00
2:00 PM,82,75,75,29.88,22,East,15.0,,,,Scattered Clouds,90,2012-12-23 18:00:00
3:00 PM,82.4,73.4,74,29.86,-9999.0,North,-9999.0,-,N/A,,Unknown,0,2012-12-23 19:00:00
4:00 PM,82.4,75.2,79,29.83,6.2,East,15.0,-,N/A,,Partly Cloudy,90,2012-12-23 20:00:00
5:00 PM,82,74,70,29.86,19,East,16.1,,,,Scattered Clouds,80,2012-12-23 21:00:00
5:00 PM,82.4,73.4,74,29.83,-9999.0,North,-9999.0,-,N/A,,Unknown,0,2012-12-23 21:00:00
6:00 PM,80.6,73.4,79,29.83,6.2,East,16.1,-,N/A,,Partly Cloudy,80,2012-12-23 22:00:00
7:00 PM,80.6,75.2,84,29.86,6.2,East,18.4,-,N/A,,Scattered Clouds,80,2012-12-23 23:00:00
8:00 PM,80,74,76,29.89,19,East,13.8,,,,Partly Cloudy,80,2012-12-24 00:00:00
8:00 PM,78.8,73.4,83,29.86,6.2,East,13.8,-,N/A,,Scattered Clouds,80,2012-12-24 00:00:00
9:00 PM,78.8,73.4,83,29.89,-9999.0,North,-9999.0,-,N/A,,Unknown,0,2012-12-24 01:00:00
10:00 PM,80.6,75.2,84,29.92,-9999.0,North,-9999.0,-,N/A,,Unknown,0,2012-12-24 02:00:00
11:00 PM,79,74,80,,,East,12.7,,,,Clear,90,2012-12-24 03:00:00
11:00 PM,78.8,73.4,83,29.89,6.2,East,12.7,-,N/A,,Scattered Clouds,90,2012-12-24 03:00:00